This demonstration page uses our WeatherBlox Daily Observations layout. Learn more.

Left ArrowRight Arrow

39.92423, -83.80882

Hourly Observations for March 31, 2018

Temp ( °F °C ) Dew Point ( °F °C ) Humidity (%) Winds ( mph kmh ) Pressure ( in mb ) Visibility ( mi km ) Precip ( " mm )
12:56 am 00:56 Clear 33 0.6 30 -1.1 89 89 N N/A 30.28 1025 10 16 N/A
1:56 am 01:56 Clear 33 0.6 30 -1.1 89 89 N N/A 30.27 1025 10 16 N/A
2:56 am 02:56 Clear 31 -0.6 29 -1.7 92 92 SW 5 7 30.27 1025 10 16 N/A
3:56 am 03:56 Clear with Mist and Fog 33 0.6 31 -0.6 92 92 SSW 6 9 30.27 1025 6 10 N/A
4:56 am 04:56 Clear with Mist and Fog 33 0.6 31 -0.6 92 92 SSW 5 7 30.26 1025 3 5 N/A
5:16 am 05:16 Clear with Mist and Fog 34 1 30 -1 87 87 SSW 5 7 30.30 1026 3 4 N/A
5:56 am 05:56 Clear with Mist and Fog 33 0.6 31 -0.6 92 92 S 3 6 30.26 1025 3 4 N/A
6:28 am 06:28 Clear with Mist and Fog 34 1 32 undefined 93 93 S 5 7 30.27 1025 3 5 N/A
6:56 am 06:56 Clear with Mist and Fog 33 0.6 33 0.6 100 100 S 6 9 30.24 1024 3 5 N/A
7:56 am 07:56 Sunny with Mist and Fog 35 1.7 34 1.1 96 96 S 7 11 30.24 1024 5 8 N/A
8:56 am 08:56 Sunny 40 4.4 35 1.7 83 83 S 7 11 30.23 1024 10 16 N/A
9:56 am 09:56 Sunny 44 6.7 37 2.8 76 76 SSW 12 19 30.22 1023 10 16 N/A
10:56 am 10:56 Sunny 49 9.4 37 2.8 64 64 SSW 13 20 30.21 1023 10 16 N/A
11:56 am 11:56 Sunny 49 9.4 37 2.8 64 64 SSW 15 24 30.19 1023 10 16 N/A
12:56 pm 12:56 Sunny 52 11.1 36 2.2 55 55 SSW 17 28 30.14 1021 10 16 N/A
1:56 pm 13:56 Sunny 54 12.2 37 2.8 53 53 SW 22 35 30.11 1020 10 16 N/A
2:56 pm 14:56 Cloudy 53 11.7 36 2.2 52 52 SSW 15 24 30.07 1018 10 16 N/A
3:56 pm 15:56 Cloudy 54 12.2 36 2.2 51 51 SSW 17 28 30.03 1017 10 16 N/A
4:56 pm 16:56 Cloudy 55 12.8 36 2.2 49 49 SW 18 30 30.01 1016 10 16 N/A
5:56 pm 17:56 Cloudy with Light Rain 55 12.8 36 2.2 49 49 SSW 13 20 29.99 1016 10 16 N/A
6:56 pm 18:56 Cloudy with Light Rain 51 10.6 40 4.4 66 66 SW 23 37 30.02 1017 10 16 N/A
7:56 pm 19:56 Cloudy with Light Rain 49 9.4 43 6.1 80 80 SW 16 26 30.04 1017 10 16 N/A
8:56 pm 20:56 Cloudy with Light Rain 48 8.9 44 6.7 86 86 SW 15 24 30.04 1017 10 16 N/A
9:56 pm 21:56 Cloudy 47 8.3 44 6.7 90 90 SW 16 26 30.03 1017 10 16 N/A
10:14 pm 22:14 Cloudy 46 8 45 7 93 93 SW 16 26 30.06 1018 10 16 N/A
10:56 pm 22:56 Cloudy 48 8.9 44 6.7 86 86 SW 20 31 30.04 1017 10 16 N/A
11:56 pm 23:56 Cloudy 48 8.9 44 6.7 86 86 WSW 16 26 30.04 1017 10 16 N/A

Powered by AerisWeather